Location: D�derode
(51.8092°N, 10.1065°E)
Time: 17:39:24
(UTC+00:00)

X-37B - Pass Details

Date: 19 April 2021
Orbit: 386 x 389 km, 45.0° (Epoch: 08 May)

Event Time Altitude Azimuth Distance (km) Brightness Sun altitude
Exits shadow 02:20:46 13° 158° (SSE) 1,235 2.9 -15.8°
Maximum altitude 02:20:46 13° 157° (SSE) 1,235 2.9 -15.8°
Drops below altitude 10° 02:22:23 10° 127° (SE) 1,413 3.5 -15.6°
Sets 02:25:15 0° 99° (E) 2,270 5.1 -15.3°
